"Time","Value","Approval","myLocation"
"2023-03-29 00:00",8.9461208194712,"Approved","OW363"
"2023-03-29 01:00",8.94611486604798,"Approved","OW363"
"2023-03-29 02:00",8.94510891262476,"Approved","OW363"
"2023-03-29 03:00",8.94510295920154,"Approved","OW363"
"2023-03-29 04:00",8.94509700577832,"Approved","OW363"
"2023-03-29 05:00",8.9450910523551,"Approved","OW363"
"2023-03-29 06:00",8.94508509893189,"Approved","OW363"
"2023-03-29 07:00",8.94507914550867,"Approved","OW363"
"2023-03-29 08:00",8.94507319208545,"Approved","OW363"
"2023-03-29 09:00",8.94606723866223,"Approved","OW363"
"2023-03-29 10:00",8.94506128523901,"Approved","OW363"
"2023-03-29 11:00",8.9460553318158,"Approved","OW363"
"2023-03-29 12:00",8.94504937839258,"Approved","OW363"
"2023-03-29 13:00",8.94604342496936,"Approved","OW363"
"2023-03-29 14:00",8.94603747154614,"Approved","OW363"
"2023-03-29 15:00",8.94603151812292,"Approved","OW363"
"2023-03-29 16:00",8.9460255646997,"Approved","OW363"
"2023-03-29 17:00",8.94701961127648,"Approved","OW363"
"2023-03-29 18:00",8.94701365785327,"Approved","OW363"
"2023-03-29 19:00",8.94600770443005,"Approved","OW363"
"2023-03-29 20:00",8.94700175100683,"Approved","OW363"
"2023-03-29 21:00",8.94599579758361,"Approved","OW363"
"2023-03-29 22:00",8.94698984416039,"Approved","OW363"
"2023-03-29 23:00",8.94698389073717,"Approved","OW363"
"2023-03-30 00:00",8.94697793731395,"Approved","OW363"
"2023-03-30 01:00",8.94697198389074,"Approved","OW363"
"2023-03-30 02:00",8.94696603046752,"Approved","OW363"
"2023-03-30 03:00",8.9459600770443,"Approved","OW363"
"2023-03-30 04:00",8.94595412362108,"Approved","OW363"
"2023-03-30 05:00",8.94694817019786,"Approved","OW363"
"2023-03-30 06:00",8.94594221677465,"Approved","OW363"
"2023-03-30 07:00",8.94693626335143,"Approved","OW363"
"2023-03-30 08:00",8.94693030992821,"Approved","OW363"
"2023-03-30 09:00",8.94692435650499,"Approved","OW363"
"2023-03-30 10:00",8.94691840308177,"Approved","OW363"
"2023-03-30 11:00",8.94691244965855,"Approved","OW363"
"2023-03-30 12:00",8.94690649623534,"Approved","OW363"
"2023-03-30 13:00",8.94690054281212,"Approved","OW363"
"2023-03-30 14:00",8.9468945893889,"Approved","OW363"
"2023-03-30 15:00",8.94688863596568,"Approved","OW363"
"2023-03-30 16:00",8.94788268254246,"Approved","OW363"
"2023-03-30 17:00",8.94787672911924,"Approved","OW363"
"2023-03-30 18:00",8.94787077569602,"Approved","OW363"
"2023-03-30 19:00",8.94886482227281,"Approved","OW363"
"2023-03-30 20:00",8.94885886884959,"Approved","OW363"
"2023-03-30 21:00",8.94885291542637,"Approved","OW363"
"2023-03-30 22:00",8.94884696200315,"Approved","OW363"
"2023-03-30 23:00",8.94884100857993,"Approved","OW363"
"2023-03-31 00:00",8.94883505515672,"Approved","OW363"
"2023-03-31 01:00",8.9488291017335,"Approved","OW363"
"2023-03-31 02:00",8.94882314831028,"Approved","OW363"
"2023-03-31 03:00",8.94881719488706,"Approved","OW363"
"2023-03-31 04:00",8.94881124146384,"Approved","OW363"
"2023-03-31 05:00",8.94880528804062,"Approved","OW363"
"2023-03-31 06:00",8.94879933461741,"Approved","OW363"
"2023-03-31 07:00",8.94879338119419,"Approved","OW363"
"2023-03-31 08:00",8.94878742777097,"Approved","OW363"
"2023-03-31 09:00",8.94978147434775,"Approved","OW363"
"2023-03-31 10:00",8.94877552092453,"Approved","OW363"
"2023-03-31 11:00",8.94976956750131,"Approved","OW363"
"2023-03-31 12:00",8.9497636140781,"Approved","OW363"
"2023-03-31 13:00",8.94975766065488,"Approved","OW363"
"2023-03-31 14:00",8.94975170723166,"Approved","OW363"
"2023-03-31 15:00",8.95074575380844,"Approved","OW363"
"2023-03-31 16:00",8.95073980038522,"Approved","OW363"
"2023-03-31 17:00",8.949733846962,"Approved","OW363"
"2023-03-31 18:00",8.94972789353879,"Approved","OW363"
"2023-03-31 19:00",8.95072194011557,"Approved","OW363"
"2023-03-31 20:00",8.95071598669235,"Approved","OW363"
"2023-03-31 21:00",8.95071003326913,"Approved","OW363"
"2023-03-31 22:00",8.95070407984591,"Approved","OW363"
"2023-03-31 23:00",8.94969812642269,"Approved","OW363"
"2023-04-01 00:00",8.95069217299947,"Approved","OW363"
"2023-04-01 01:00",8.95068621957626,"Approved","OW363"
"2023-04-01 02:00",8.95068026615304,"Approved","OW363"
"2023-04-01 03:00",8.95067431272982,"Approved","OW363"
"2023-04-01 04:00",8.9506683593066,"Approved","OW363"
"2023-04-01 05:00",8.95066240588338,"Approved","OW363"
"2023-04-01 06:00",8.95065645246016,"Approved","OW363"
"2023-04-01 07:00",8.95065049903695,"Approved","OW363"
"2023-04-01 08:00",8.95064454561373,"Approved","OW363"
"2023-04-01 09:00",8.95063859219051,"Approved","OW363"
"2023-04-01 10:00",8.95063263876729,"Approved","OW363"
"2023-04-01 11:00",8.95062668534407,"Approved","OW363"
"2023-04-01 12:00",8.95062073192085,"Approved","OW363"
"2023-04-01 13:00",8.95061477849764,"Approved","OW363"
"2023-04-01 14:00",8.95060882507442,"Approved","OW363"
"2023-04-01 15:00",8.9506028716512,"Approved","OW363"
"2023-04-01 16:00",8.95059691822798,"Approved","OW363"
"2023-04-01 17:00",8.95059096480476,"Approved","OW363"
"2023-04-01 18:00",8.95058501138154,"Approved","OW363"
"2023-04-01 19:00",8.95057905795833,"Approved","OW363"
"2023-04-01 20:00",8.95057310453511,"Approved","OW363"
"2023-04-01 21:00",8.95056715111189,"Approved","OW363"
"2023-04-01 22:00",8.94956119768867,"Approved","OW363"
"2023-04-01 23:00",8.94955524426545,"Approved","OW363"
"2023-04-02 00:00",8.95054929084223,"Approved","OW363"
"2023-04-02 01:00",8.95054333741902,"Approved","OW363"
"2023-04-02 02:00",8.9505373839958,"Approved","OW363"
"2023-04-02 03:00",8.95053143057258,"Approved","OW363"
"2023-04-02 04:00",8.95052547714936,"Approved","OW363"
"2023-04-02 05:00",8.95051952372614,"Approved","OW363"
"2023-04-02 06:00",8.95051357030292,"Approved","OW363"
"2023-04-02 07:00",8.9505076168797,"Approved","OW363"
"2023-04-02 08:00",8.95050166345649,"Approved","OW363"
"2023-04-02 09:00",8.95049571003327,"Approved","OW363"
"2023-04-02 10:00",8.95048975661005,"Approved","OW363"
"2023-04-02 11:00",8.95048380318683,"Approved","OW363"
"2023-04-02 12:00",8.95047784976361,"Approved","OW363"
"2023-04-02 13:00",8.9504718963404,"Approved","OW363"
"2023-04-02 14:00",8.95046594291718,"Approved","OW363"
"2023-04-02 15:00",8.95045998949396,"Approved","OW363"
"2023-04-02 16:00",8.95045403607074,"Approved","OW363"
"2023-04-02 17:00",8.95144808264752,"Approved","OW363"
"2023-04-02 18:00",8.9514421292243,"Approved","OW363"
"2023-04-02 19:00",8.95043617580109,"Approved","OW363"
"2023-04-02 20:00",8.95043022237787,"Approved","OW363"
"2023-04-02 21:00",8.95142426895465,"Approved","OW363"
"2023-04-02 22:00",8.95141831553143,"Approved","OW363"
"2023-04-02 23:00",8.95141236210821,"Approved","OW363"
"2023-04-03 00:00",8.95040640868499,"Approved","OW363"
"2023-04-03 01:00",8.95140045526178,"Approved","OW363"
"2023-04-03 02:00",8.95139450183856,"Approved","OW363"
"2023-04-03 03:00",8.95138854841534,"Approved","OW363"
"2023-04-03 04:00",8.95138259499212,"Approved","OW363"
"2023-04-03 05:00",8.9513766415689,"Approved","OW363"
"2023-04-03 06:00",8.95137068814569,"Approved","OW363"
"2023-04-03 07:00",8.95136473472247,"Approved","OW363"
"2023-04-03 08:00",8.95135878129925,"Approved","OW363"
"2023-04-03 09:00",8.95135282787603,"Approved","OW363"
"2023-04-03 10:00",8.95234687445281,"Approved","OW363"
"2023-04-03 11:00",8.95234092102959,"Approved","OW363"
"2023-04-03 12:00",8.95233496760637,"Approved","OW363"
"2023-04-03 13:00",8.95232901418315,"Approved","OW363"
"2023-04-03 14:00",8.95232306075994,"Approved","OW363"
"2023-04-03 15:00",8.95131710733672,"Approved","OW363"
"2023-04-03 16:00",8.9523111539135,"Approved","OW363"
"2023-04-03 17:00",8.95230520049028,"Approved","OW363"
"2023-04-03 18:00",8.95229924706706,"Approved","OW363"
"2023-04-03 19:00",8.95229329364385,"Approved","OW363"
"2023-04-03 20:00",8.95328734022063,"Approved","OW363"
"2023-04-03 21:00",8.95228138679741,"Approved","OW363"
"2023-04-03 22:00",8.95327543337419,"Approved","OW363"
"2023-04-03 23:00",8.95326947995097,"Approved","OW363"
"2023-04-04 00:00",8.95226352652775,"Approved","OW363"
"2023-04-04 01:00",8.95225757310454,"Approved","OW363"
"2023-04-04 02:00",8.95325161968132,"Approved","OW363"
"2023-04-04 03:00",8.9532456662581,"Approved","OW363"
"2023-04-04 04:00",8.95323971283488,"Approved","OW363"
"2023-04-04 05:00",8.95323375941166,"Approved","OW363"
"2023-04-04 06:00",8.95322780598844,"Approved","OW363"
"2023-04-04 07:00",8.95322185256522,"Approved","OW363"
"2023-04-04 08:00",8.95321589914201,"Approved","OW363"
"2023-04-04 09:00",8.95320994571879,"Approved","OW363"
"2023-04-04 10:00",8.95320399229557,"Approved","OW363"
"2023-04-04 11:00",8.95319803887235,"Approved","OW363"
"2023-04-04 12:00",8.95319208544913,"Approved","OW363"
"2023-04-04 13:00",8.95418613202591,"Approved","OW363"
"2023-04-04 14:00",8.9541801786027,"Approved","OW363"
"2023-04-04 15:00",8.95417422517948,"Approved","OW363"
"2023-04-04 16:00",8.95416827175626,"Approved","OW363"
"2023-04-04 17:00",8.95516231833304,"Approved","OW363"
"2023-04-04 18:00",8.95515636490982,"Approved","OW363"
"2023-04-04 19:00",8.9551504114866,"Approved","OW363"
"2023-04-04 20:00",8.95514445806339,"Approved","OW363"
"2023-04-04 21:00",8.95513850464017,"Approved","OW363"
"2023-04-04 22:00",8.95513255121695,"Approved","OW363"
"2023-04-04 23:00",8.95512659779373,"Approved","OW363"
"2023-04-05 00:00",8.95612064437051,"Approved","OW363"
"2023-04-05 01:00",8.9551146909473,"Approved","OW363"
"2023-04-05 02:00",8.95510873752408,"Approved","OW363"
"2023-04-05 03:00",8.95510278410086,"Approved","OW363"
"2023-04-05 04:00",8.95609683067764,"Approved","OW363"
"2023-04-05 05:00",8.95609087725442,"Approved","OW363"
"2023-04-05 06:00",8.9560849238312,"Approved","OW363"
"2023-04-05 07:00",8.95607897040798,"Approved","OW363"
"2023-04-05 08:00",8.95607301698477,"Approved","OW363"
"2023-04-05 09:00",8.95606706356155,"Approved","OW363"
"2023-04-05 10:00",8.95606111013833,"Approved","OW363"
"2023-04-05 11:00",8.95605515671511,"Approved","OW363"
"2023-04-05 12:00",8.95704920329189,"Approved","OW363"
"2023-04-05 13:00",8.95704324986867,"Approved","OW363"
"2023-04-05 14:00",8.95703729644546,"Approved","OW363"
"2023-04-05 15:00",8.95703134302224,"Approved","OW363"
"2023-04-05 16:00",8.95702538959902,"Approved","OW363"
"2023-04-05 17:00",8.9580194361758,"Approved","OW363"
"2023-04-05 18:00",8.95801348275258,"Approved","OW363"
"2023-04-05 19:00",8.95800752932936,"Approved","OW363"
"2023-04-05 20:00",8.95800157590615,"Approved","OW363"
"2023-04-05 21:00",8.95799562248293,"Approved","OW363"
"2023-04-05 22:00",8.95898966905971,"Approved","OW363"
"2023-04-05 23:00",8.95798371563649,"Approved","OW363"
"2023-04-06 00:00",8.95897776221327,"Approved","OW363"
"2023-04-06 01:00",8.95897180879005,"Approved","OW363"
"2023-04-06 02:00",8.95896585536684,"Approved","OW363"
"2023-04-06 03:00",8.95895990194362,"Approved","OW363"
"2023-04-06 04:00",8.9589539485204,"Approved","OW363"
"2023-04-06 05:00",8.95894799509718,"Approved","OW363"
"2023-04-06 06:00",8.95894204167396,"Approved","OW363"
"2023-04-06 07:00",8.95993608825074,"Approved","OW363"
"2023-04-06 08:00",8.95993013482753,"Approved","OW363"
"2023-04-06 09:00",8.95992418140431,"Approved","OW363"
"2023-04-06 10:00",8.95991822798109,"Approved","OW363"
"2023-04-06 11:00",8.95991227455787,"Approved","OW363"
"2023-04-06 12:00",8.96090632113465,"Approved","OW363"
"2023-04-06 13:00",8.96090036771144,"Approved","OW363"
"2023-04-06 14:00",8.96089441428822,"Approved","OW363"
"2023-04-06 15:00",8.960888460865,"Approved","OW363"
"2023-04-06 16:00",8.96088250744178,"Approved","OW363"
"2023-04-06 17:00",8.96187655401856,"Approved","OW363"
"2023-04-06 18:00",8.96187060059534,"Approved","OW363"
"2023-04-06 19:00",8.96186464717212,"Approved","OW363"
"2023-04-06 20:00",8.9618586937489,"Approved","OW363"
"2023-04-06 21:00",8.96185274032569,"Approved","OW363"
"2023-04-06 22:00",8.96184678690247,"Approved","OW363"
"2023-04-06 23:00",8.96184083347925,"Approved","OW363"
"2023-04-07 00:00",8.96183488005603,"Approved","OW363"
"2023-04-07 01:00",8.96182892663281,"Approved","OW363"
"2023-04-07 02:00",8.9618229732096,"Approved","OW363"
"2023-04-07 03:00",8.96181701978638,"Approved","OW363"
"2023-04-07 04:00",8.96281106636316,"Approved","OW363"
"2023-04-07 05:00",8.96280511293994,"Approved","OW363"
"2023-04-07 06:00",8.96279915951672,"Approved","OW363"
"2023-04-07 07:00",8.9627932060935,"Approved","OW363"
"2023-04-07 08:00",8.96278725267029,"Approved","OW363"
"2023-04-07 09:00",8.96278129924707,"Approved","OW363"
"2023-04-07 10:00",8.96277534582385,"Approved","OW363"
"2023-04-07 11:00",8.96376939240063,"Approved","OW363"
"2023-04-07 12:00",8.96276343897741,"Approved","OW363"
"2023-04-07 13:00",8.96275748555419,"Approved","OW363"
"2023-04-07 14:00",8.96375153213098,"Approved","OW363"
"2023-04-07 15:00",8.96374557870776,"Approved","OW363"
"2023-04-07 16:00",8.96373962528454,"Approved","OW363"
"2023-04-07 17:00",8.96373367186132,"Approved","OW363"
"2023-04-07 18:00",8.9637277184381,"Approved","OW363"
"2023-04-07 19:00",8.96372176501488,"Approved","OW363"
"2023-04-07 20:00",8.96471581159166,"Approved","OW363"
"2023-04-07 21:00",8.96370985816845,"Approved","OW363"
"2023-04-07 22:00",8.96470390474523,"Approved","OW363"
"2023-04-07 23:00",8.96369795132201,"Approved","OW363"
"2023-04-08 00:00",8.96369199789879,"Approved","OW363"
"2023-04-08 01:00",8.96368604447557,"Approved","OW363"
"2023-04-08 02:00",8.96368009105236,"Approved","OW363"
"2023-04-08 03:00",8.96367413762914,"Approved","OW363"
"2023-04-08 04:00",8.96466818420592,"Approved","OW363"
"2023-04-08 05:00",8.9636622307827,"Approved","OW363"
"2023-04-08 06:00",8.96365627735948,"Approved","OW363"
"2023-04-08 07:00",8.96365032393626,"Approved","OW363"
"2023-04-08 08:00",8.96464437051305,"Approved","OW363"
"2023-04-08 09:00",8.96463841708983,"Approved","OW363"
"2023-04-08 10:00",8.96363246366661,"Approved","OW363"
"2023-04-08 11:00",8.96462651024339,"Approved","OW363"
"2023-04-08 12:00",8.96462055682017,"Approved","OW363"
"2023-04-08 13:00",8.96461460339695,"Approved","OW363"
"2023-04-08 14:00",8.96460864997374,"Approved","OW363"
"2023-04-08 15:00",8.96460269655052,"Approved","OW363"
"2023-04-08 16:00",8.9645967431273,"Approved","OW363"
"2023-04-08 17:00",8.96459078970408,"Approved","OW363"
"2023-04-08 18:00",8.96358483628086,"Approved","OW363"
"2023-04-08 19:00",8.96357888285764,"Approved","OW363"
"2023-04-08 20:00",8.96357292943443,"Approved","OW363"
"2023-04-08 21:00",8.96356697601121,"Approved","OW363"
"2023-04-08 22:00",8.96456102258799,"Approved","OW363"
"2023-04-08 23:00",8.96355506916477,"Approved","OW363"
"2023-04-09 00:00",8.96454911574155,"Approved","OW363"
"2023-04-09 01:00",8.96454316231833,"Approved","OW363"
"2023-04-09 02:00",8.96353720889512,"Approved","OW363"
"2023-04-09 03:00",8.9645312554719,"Approved","OW363"
"2023-04-09 04:00",8.96452530204868,"Approved","OW363"
"2023-04-09 05:00",8.96451934862546,"Approved","OW363"
"2023-04-09 06:00",8.96451339520224,"Approved","OW363"
"2023-04-09 07:00",8.96350744177902,"Approved","OW363"
"2023-04-09 08:00",8.9635014883558,"Approved","OW363"
"2023-04-09 09:00",8.96349553493259,"Approved","OW363"
"2023-04-09 10:00",8.96348958150937,"Approved","OW363"
"2023-04-09 11:00",8.96348362808615,"Approved","OW363"
"2023-04-09 12:00",8.96347767466293,"Approved","OW363"
"2023-04-09 13:00",8.96347172123971,"Approved","OW363"
"2023-04-09 14:00",8.9634657678165,"Approved","OW363"
"2023-04-09 15:00",8.96345981439328,"Approved","OW363"
"2023-04-09 16:00",8.96445386097006,"Approved","OW363"
"2023-04-09 17:00",8.96344790754684,"Approved","OW363"
"2023-04-09 18:00",8.96344195412362,"Approved","OW363"
"2023-04-09 19:00",8.9634360007004,"Approved","OW363"
"2023-04-09 20:00",8.96343004727719,"Approved","OW363"
"2023-04-09 21:00",8.96342409385397,"Approved","OW363"
"2023-04-09 22:00",8.96241814043075,"Approved","OW363"
"2023-04-09 23:00",8.96341218700753,"Approved","OW363"
"2023-04-10 00:00",8.96240623358431,"Approved","OW363"
"2023-04-10 01:00",8.96340028016109,"Approved","OW363"
"2023-04-10 02:00",8.96239432673787,"Approved","OW363"
"2023-04-10 03:00",8.96238837331466,"Approved","OW363"
"2023-04-10 04:00",8.96238241989144,"Approved","OW363"
"2023-04-10 05:00",8.96137646646822,"Approved","OW363"
"2023-04-10 06:00",8.961370513045,"Approved","OW363"
"2023-04-10 07:00",8.96136455962178,"Approved","OW363"
"2023-04-10 08:00",8.96035860619856,"Approved","OW363"
"2023-04-10 09:00",8.96135265277535,"Approved","OW363"
"2023-04-10 10:00",8.96134669935213,"Approved","OW363"
"2023-04-10 11:00",8.96234074592891,"Approved","OW363"
"2023-04-10 12:00",8.96133479250569,"Approved","OW363"
"2023-04-10 13:00",8.96032883908247,"Approved","OW363"
"2023-04-10 14:00",8.96132288565925,"Approved","OW363"
"2023-04-10 15:00",8.96131693223604,"Approved","OW363"
"2023-04-10 16:00",8.96131097881282,"Approved","OW363"
"2023-04-10 17:00",8.9603050253896,"Approved","OW363"
"2023-04-10 18:00",8.96029907196638,"Approved","OW363"
"2023-04-10 19:00",8.96029311854316,"Approved","OW363"
"2023-04-10 20:00",8.96028716511995,"Approved","OW363"
"2023-04-10 21:00",8.96028121169673,"Approved","OW363"
"2023-04-10 22:00",8.95927525827351,"Approved","OW363"
"2023-04-10 23:00",8.95926930485029,"Approved","OW363"
"2023-04-11 00:00",8.95926335142707,"Approved","OW363"
"2023-04-11 01:00",8.95925739800385,"Approved","OW363"
"2023-04-11 02:00",8.95825144458063,"Approved","OW363"
"2023-04-11 03:00",8.95824549115741,"Approved","OW363"
"2023-04-11 04:00",8.9572395377342,"Approved","OW363"
"2023-04-11 05:00",8.95723358431098,"Approved","OW363"
"2023-04-11 06:00",8.95722763088776,"Approved","OW363"
"2023-04-11 07:00",8.95522167746454,"Approved","OW363"
"2023-04-11 08:00",8.95521572404132,"Approved","OW363"
"2023-04-11 09:00",8.9552097706181,"Approved","OW363"
"2023-04-11 10:00",8.95320381719489,"Approved","OW363"
"2023-04-11 11:00",8.95219786377167,"Approved","OW363"
"2023-04-11 12:00",8.95219191034845,"Approved","OW363"
"2023-04-11 13:00",8.95018595692523,"Approved","OW363"
"2023-04-11 14:00",8.95018000350201,"Approved","OW363"
"2023-04-11 15:00",8.9491740500788,"Approved","OW363"
"2023-04-11 16:00",8.94816809665558,"Approved","OW363"
"2023-04-11 17:00",8.94716214323236,"Approved","OW363"
"2023-04-11 18:00",8.94615618980914,"Approved","OW363"
"2023-04-11 19:00",8.94615023638592,"Approved","OW363"
"2023-04-11 20:00",8.9451442829627,"Approved","OW363"
"2023-04-11 21:00",8.94513832953949,"Approved","OW363"
"2023-04-11 22:00",8.94413237611627,"Approved","OW363"
"2023-04-11 23:00",8.94312642269305,"Approved","OW363"
"2023-04-12 00:00",8.94112046926983,"Approved","OW363"
"2023-04-12 01:00",8.94011451584661,"Approved","OW363"
"2023-04-12 02:00",8.94010856242339,"Approved","OW363"
"2023-04-12 03:00",8.93910260900017,"Approved","OW363"
"2023-04-12 04:00",8.93809665557696,"Approved","OW363"
"2023-04-12 05:00",8.93709070215374,"Approved","OW363"
"2023-04-12 06:00",8.93608474873052,"Approved","OW363"
"2023-04-12 07:00",8.9340787953073,"Approved","OW363"
"2023-04-12 08:00",8.93407284188408,"Approved","OW363"
"2023-04-12 09:00",8.93206688846086,"Approved","OW363"
"2023-04-12 10:00",8.93106093503765,"Approved","OW363"
"2023-04-12 11:00",8.93005498161443,"Approved","OW363"
"2023-04-12 12:00",8.92904902819121,"Approved","OW363"
"2023-04-12 13:00",8.92704307476799,"Approved","OW363"
"2023-04-12 14:00",8.92603712134477,"Approved","OW363"
"2023-04-12 15:00",8.92503116792155,"Approved","OW363"
"2023-04-12 16:00",8.92402521449834,"Approved","OW363"
"2023-04-12 17:00",8.92301926107512,"Approved","OW363"
"2023-04-12 18:00",8.9220133076519,"Approved","OW363"
"2023-04-12 19:00",8.92000735422868,"Approved","OW363"
"2023-04-12 20:00",8.91900140080546,"Approved","OW363"
"2023-04-12 21:00",8.91699544738225,"Approved","OW363"
"2023-04-12 22:00",8.91698949395903,"Approved","OW363"
"2023-04-12 23:00",8.91598354053581,"Approved","OW363"
"2023-04-13 00:00",8.91397758711259,"Approved","OW363"
"2023-04-13 01:00",8.91297163368937,"Approved","OW363"
"2023-04-13 02:00",8.91096568026615,"Approved","OW363"
"2023-04-13 03:00",8.91095972684293,"Approved","OW363"
"2023-04-13 04:00",8.90995377341972,"Approved","OW363"
"2023-04-13 05:00",8.9089478199965,"Approved","OW363"
"2023-04-13 06:00",8.90794186657328,"Approved","OW363"
"2023-04-13 07:00",8.90693591315006,"Approved","OW363"
"2023-04-13 08:00",8.90592995972684,"Approved","OW363"
"2023-04-13 09:00",8.90492400630362,"Approved","OW363"
"2023-04-13 10:00",8.90391805288041,"Approved","OW363"
"2023-04-13 11:00",8.90291209945719,"Approved","OW363"
"2023-04-13 12:00",8.90190614603397,"Approved","OW363"
"2023-04-13 13:00",8.90090019261075,"Approved","OW363"
"2023-04-13 14:00",8.89989423918753,"Approved","OW363"
"2023-04-13 15:00",8.89888828576431,"Approved","OW363"
"2023-04-13 16:00",8.8988823323411,"Approved","OW363"
"2023-04-13 17:00",8.89687637891788,"Approved","OW363"
"2023-04-13 18:00",8.89687042549466,"Approved","OW363"
"2023-04-13 19:00",8.89686447207144,"Approved","OW363"
"2023-04-13 20:00",8.89585851864822,"Approved","OW363"
"2023-04-13 21:00",8.893852565225,"Approved","OW363"
"2023-04-13 22:00",8.89384661180179,"Approved","OW363"
"2023-04-13 23:00",8.89284065837857,"Approved","OW363"
"2023-04-14 00:00",8.89183470495535,"Approved","OW363"
"2023-04-14 01:00",8.89182875153213,"Approved","OW363"
"2023-04-14 02:00",8.89082279810891,"Approved","OW363"
"2023-04-14 03:00",8.89081684468569,"Approved","OW363"
"2023-04-14 04:00",8.88981089126248,"Approved","OW363"
"2023-04-14 05:00",8.88980493783926,"Approved","OW363"
"2023-04-14 06:00",8.88879898441604,"Approved","OW363"
"2023-04-14 07:00",8.88779303099282,"Approved","OW363"
"2023-04-14 08:00",8.8877870775696,"Approved","OW363"
"2023-04-14 09:00",8.88678112414638,"Approved","OW363"
"2023-04-14 10:00",8.88677517072317,"Approved","OW363"
"2023-04-14 11:00",8.88576921729995,"Approved","OW363"
"2023-04-14 12:00",8.88576326387673,"Approved","OW363"
"2023-04-14 13:00",8.88475731045351,"Approved","OW363"
"2023-04-14 14:00",8.88475135703029,"Approved","OW363"
"2023-04-14 15:00",8.88374540360707,"Approved","OW363"
"2023-04-14 16:00",8.88473945018386,"Approved","OW363"
"2023-04-14 17:00",8.88373349676064,"Approved","OW363"
"2023-04-14 18:00",8.88272754333742,"Approved","OW363"
"2023-04-14 19:00",8.8827215899142,"Approved","OW363"
"2023-04-14 20:00",8.88171563649098,"Approved","OW363"
"2023-04-14 21:00",8.88170968306776,"Approved","OW363"
"2023-04-14 22:00",8.88070372964455,"Approved","OW363"
"2023-04-14 23:00",8.88069777622133,"Approved","OW363"
"2023-04-15 00:00",8.88069182279811,"Approved","OW363"
"2023-04-15 01:00",8.88068586937489,"Approved","OW363"
"2023-04-15 02:00",8.87967991595167,"Approved","OW363"
"2023-04-15 03:00",8.87967396252845,"Approved","OW363"
"2023-04-15 04:00",8.87966800910524,"Approved","OW363"
"2023-04-15 05:00",8.87866205568202,"Approved","OW363"
"2023-04-15 06:00",8.8786561022588,"Approved","OW363"
"2023-04-15 07:00",8.87865014883558,"Approved","OW363"
"2023-04-15 08:00",8.87864419541236,"Approved","OW363"
"2023-04-15 09:00",8.87763824198914,"Approved","OW363"
"2023-04-15 10:00",8.87763228856593,"Approved","OW363"
"2023-04-15 11:00",8.87762633514271,"Approved","OW363"
"2023-04-15 12:00",8.87662038171949,"Approved","OW363"
"2023-04-15 13:00",8.87661442829627,"Approved","OW363"
"2023-04-15 14:00",8.87660847487305,"Approved","OW363"
"2023-04-15 15:00",8.87660252144983,"Approved","OW363"
"2023-04-15 16:00",8.87659656802662,"Approved","OW363"
"2023-04-15 17:00",8.8755906146034,"Approved","OW363"
"2023-04-15 18:00",8.87558466118018,"Approved","OW363"
"2023-04-15 19:00",8.87557870775696,"Approved","OW363"